Notices

What's New in latest Release from April 7th, 2021:

- Updated Glossary, including Speed of Maximum Gust, and Total Hourly Precipitation

- Updated national and regional climate services offices contacts and prices information

- Addition of station inventory lists for 1981-2010, 1971-2000, and 1961-1990 Normals.

If you haven't already, please take our survey and provide feedback about our website: https://eccc.sondage-survey.ca/f/LanguageSelection.aspx?s=442ca660-fcf1-47c0-95a9-59707d6fd709

Hourly Data Report for October 30, 2015

IQALUIT CLIMATE
NUNAVUT

63°44'50.000" N
68°32'40.000" W
33.50 m
2402592
71321
XFB

Download Data

Hourly Data (October 2015)
Hourly Data Report for October 30, 2015
TIME
LST
Temp Definition
°C
Dew Point Definition
°C
Rel Hum Definition
%
Precip. Amount Definition
mm

Wind Dir Definition
10's deg

Wind Spd Definition
km/h
Visibility Definition
km
Stn Press Definition
kPa
Hmdx Definition


Wind Chill Definition


Weather Definition


00:00 -7.8 -12.7 68 0.0 7 22   99.59   -15 LegendNANA
01:00 -7.6 -10.8 77 0.0 7 17   99.53   -14 LegendNANA
02:00 -7.1 -9.4 83 0.0 8 19   99.45   -14 LegendNANA
03:00 -6.5 -8.9 83 0.0 8 28   99.40   -15 LegendNANA
04:00 -6.1 -8.8 81 0.0 8 31   99.32   -15 LegendNANA
05:00 -5.6 -8.1 82 0.2 7 35   99.29   -14 LegendNANA
06:00 -5.1 -8.6 76 0.0 7 31   99.27   -13 LegendNANA
07:00 -4.8 -8.2 77 0.0 8 22   99.30   -12 LegendNANA
08:00 -5.0 -7.5 82 0.0 7 13   99.31   -10 LegendNANA
09:00 -4.5 -6.6 85 0.2 8 13   99.31   -10 LegendNANA
10:00 -3.8 -6.9 79 0.0 8 15   99.30   -9 LegendNANA
11:00 -3.2 -7.2 74 0.0 8 13   99.28   -8 LegendNANA
12:00 -3.3 -7.4 74 0.0 8 15   99.29   -8 LegendNANA
13:00 -3.0 -8.1 68 0.0 7 15   99.33   -8 LegendNANA
14:00 -3.5 -8.1 70 0.0 6 15   99.38   -9 LegendNANA
15:00 -3.7 -8.8 68 0.0 6 14   99.42   -9 LegendNANA
16:00 -4.1 -9.0 69 0.0 7 19   99.47   -10 LegendNANA
17:00 -4.2 -9.4 67 0.0 6 20   99.54   -11 LegendNANA
18:00 -4.8 -8.5 75 0.0 5 24   99.59   -12 LegendNANA
19:00 -5.1 -7.6 83 0.0 4 24   99.64   -12 LegendNANA
20:00 -5.1 -8.4 78 0.0 3 29   99.70   -13 LegendNANA
21:00 -5.3 -8.9 76 0.0 2 16   99.75   -11 LegendNANA
22:00 -5.7 -8.9 78 0.0 1 19   99.76   -12 LegendNANA
23:00 -5.8 -9.5 75 0.0 2 19   99.80   -12 LegendNANA

Notes on Data Quality.

Legend

  • E = Estimated
  • M = Missing
  • NA = Not Available*
  • [empty] = Indicates an unobserved value
Date modified: